Flag for Germany Weather past 2 weeks in Fürth, Bavaria, Germany

Now
55 °F

Broken clouds.


Feels Like: 55 °F
Forecast: 46 / 60 °F
Wind: 3 mph from Southeast

Location: Nuernberg

Current Time: May 25, 2015 at 7:59:59 PM

Latest Report: May 25, 2015 at 7:20 PM


Visibility: N/A

Pressure: 29.92 "Hg

Humidity: 88%

Dew point: 52 °F

Location of FürthLocation

Historic Weather in Fürth — Graph

°F

Fürth temperature yesterday

Maximum temperature yesterday: 66 °F (at 2:20 PM)
Minimum temperature yesterday: 55 °F (at 3:50 AM)
Average temperature yesterday: 59 °F

Past Weeks' High & Low Weather Summary

 TemperatureHumidityPressure
High82 °F (May 12, 3:20 PM)100% (May 21, 2:20 AM)30.36 "Hg (May 21, 2:20 AM)
Low37 °F (May 22, 4:50 AM)27% (May 18, 6:20 PM)29.71 "Hg (May 18, 7:20 PM)
Average57 °F62%30.06 "Hg
* Reported May 10 6:20 PM — May 25 6:50 PM, Fürth, Weather by CustomWeather, © 2015

Note: Actual official high and low records may vary slightly from our data, if they occured in-between our weather recording intervals... More about our weather records

Advertising

Fürth weather history for previous 24 hours

 ConditionsComfort  
Time TempWeatherWind HumidityBarometerVisibility
6:50 PM
Mon, May 25
55 °FLight rain. Broken clouds.1 mph88%29.92 "HgN/A
6:20 PM55 °FLight rain. Broken clouds.1 mph88%29.92 "HgN/A
5:50 PM55 °FLight rain. Broken clouds.1 mph88%29.92 "HgN/A
5:20 PM55 °FLight rain. Broken clouds.5 mph88%29.92 "HgN/A
4:50 PM57 °FLight rain. Broken clouds.8 mph82%29.92 "HgN/A
4:20 PM57 °FPartly sunny.12 mph77%29.92 "HgN/A
3:50 PM57 °FBroken clouds.17 mph77%29.92 "HgN/A
3:20 PM68 °FBroken clouds.13 mph49%29.89 "HgN/A
2:50 PM68 °FPassing clouds.8 mph43%29.89 "HgN/A
2:20 PM68 °FSunny.3 mph40%29.89 "Hg10 mi
1:50 PM68 °FPassing clouds.7 mph43%29.89 "HgN/A
1:20 PM66 °FSprinkles. Broken clouds.7 mph49%29.92 "HgN/A
12:50 PM68 °FPassing clouds.9 mph46%29.92 "HgN/A
12:20 PM68 °FPartly sunny.7 mph46%29.95 "HgN/A
11:50 AM66 °FPartly sunny.6 mph49%29.95 "HgN/A
11:20 AM64 °FPartly sunny.7 mph60%29.95 "HgN/A
10:50 AM63 °FPassing clouds.6 mph64%29.98 "HgN/A
10:20 AM61 °FPassing clouds.6 mph68%29.98 "HgN/A
9:50 AM59 °FPassing clouds.6 mph72%29.98 "HgN/A
9:20 AM59 °FPassing clouds.6 mph68%29.98 "HgN/A
8:50 AM57 °FPassing clouds.5 mph72%29.98 "HgN/A
8:20 AM57 °FSunny.5 mph77%29.98 "Hg10 mi
7:50 AM55 °FSunny.5 mph82%29.98 "Hg10 mi
7:20 AM54 °FSunny.5 mph88%29.98 "Hg10 mi
6:50 AM54 °FSunny.3 mph88%29.98 "Hg10 mi
6:20 AM54 °FSunny.5 mph82%30.01 "Hg10 mi
5:50 AM54 °FPassing clouds.3 mph88%30.01 "HgN/A
5:20 AM54 °FClear.7 mph82%30.01 "Hg10 mi
4:50 AM54 °FClear.5 mph82%30.01 "Hg10 mi
4:20 AM54 °FClear.5 mph82%30.01 "Hg10 mi
3:50 AM54 °FClear.5 mph82%30.01 "Hg10 mi
3:20 AM54 °FClear.5 mph88%30.01 "Hg10 mi
2:50 AM54 °FClear.3 mph88%30.01 "Hg10 mi
2:20 AM54 °FPassing clouds.3 mph88%30.01 "HgN/A
1:50 AM55 °FClear.3 mph82%30.04 "Hg10 mi
1:20 AM55 °FPassing clouds.5 mph82%30.04 "HgN/A
12:50 AM55 °FClear.1 mph82%30.04 "Hg10 mi
12:20 AM55 °FClear.3 mph82%30.04 "Hg10 mi
11:20 PM
Sun, May 24
57 °FClear.5 mph77%30.04 "Hg10 mi
10:50 PM59 °FClear.5 mph72%30.04 "Hg10 mi
10:20 PM59 °FClear.5 mph72%30.07 "Hg10 mi
9:50 PM59 °FPassing clouds.3 mph72%30.07 "HgN/A
9:20 PM59 °FSunny.3 mph72%30.07 "Hg10 mi
8:50 PM59 °FSunny.3 mph72%30.07 "Hg10 mi
8:20 PM59 °FSunny.3 mph68%30.04 "Hg10 mi
7:50 PM61 °FSunny.5 mph63%30.04 "Hg10 mi
7:20 PM61 °FSunny.3 mph63%30.04 "Hg10 mi
Weather by CustomWeather, © 2015

See weather overviewHow to use our weather pages